This is the latest recevied weather packets stored in our database for station/object DC1NF-6. If no packets are shown the sender has not sent any weather packets the latest 10 day(s).
| Time | Temp. | Humidity | Pressure | Rain* | Wind** | Luminosity | Snow |
|---|---|---|---|---|---|---|---|
| 1777485064 | 11.11° C | 35% | 1025.5 hPa | 0 mm | - | - | - |
| 1777484460 | 11.67° C | 34% | 1025.4 hPa | 0 mm | - | - | - |
| 1777483857 | 11.67° C | 34% | 1025.3 hPa | 0 mm | - | - | - |
| 1777483254 | 11.67° C | 34% | 1025.1 hPa | 0 mm | - | - | - |
| 1777482650 | 12.22° C | 34% | 1025 hPa | 0 mm | - | - | - |
| 1777482047 | 12.22° C | 34% | 1025 hPa | 0 mm | - | - | - |
| 1777481444 | 12.78° C | 35% | 1024.9 hPa | 0 mm | - | - | - |
| 1777480840 | 12.78° C | 34% | 1024.8 hPa | 0 mm | - | - | - |
| 1777480237 | 12.78° C | 34% | 1024.6 hPa | 0 mm | - | - | - |
| 1777479634 | 13.33° C | 33% | 1024.6 hPa | 0 mm | - | - | - |
| 1777479030 | 13.33° C | 32% | 1024.5 hPa | 0 mm | - | - | - |
| 1777478428 | 13.33° C | 32% | 1024.4 hPa | 0 mm | - | - | - |
| 1777477824 | 13.89° C | 33% | 1024.3 hPa | 0 mm | - | - | - |
| 1777477220 | 13.89° C | 32% | 1024.2 hPa | 0 mm | - | - | - |
| 1777476618 | 13.89° C | 32% | 1024.2 hPa | 0 mm | - | - | - |
| 1777476074 | 14.44° C | 31% | 1024.2 hPa | 0 mm | - | - | - |
| 1777475471 | 14.44° C | 31% | 1024.2 hPa | 0 mm | - | - | - |
| 1777474868 | 15° C | 31% | 1024.1 hPa | 0 mm | - | - | - |
| 1777474264 | 15° C | 31% | 1024.2 hPa | 0 mm | - | - | - |
| 1777473661 | 15° C | 32% | 1024.1 hPa | 0 mm | - | - | - |
| 1777473058 | 15.56° C | 32% | 1024.1 hPa | 0 mm | - | - | - |
| 1777472454 | 16.11° C | 33% | 1024 hPa | 0 mm | - | - | - |
| 1777471851 | 16.11° C | 33% | 1023.9 hPa | 0 mm | - | - | - |
| 1777471248 | 16.67° C | 33% | 1023.9 hPa | 0 mm | - | - | - |
| 1777470644 | 16.11° C | 31% | 1023.9 hPa | 0 mm | - | - | - |
* Rain latest hour (hover to see other rain measurements)
** Current wind speed in m/s (hover to see current wind gust speed)